St. Charles, IL

11:02 AM CDT on June 25, 2017 (GMT -0500)
Saint Charles County Smartt

Weather History for KSET - December, 2012

Change the Weather History Date:

Friday, December 7, 2012

  Actual Average (KSTL) Record (KSTL)
Temperature  
Mean Temperature 48 °F -  
Max Temperature 51 °F 44 °F 73 °F (1966)
Min Temperature 44 °F 29 °F -6 °F (1882)
Degree Days  
Heating Degree Days 18    
Moisture  
Dew Point 46 °F    
Average Humidity 94    
Maximum Humidity 100    
Minimum Humidity 86    
Precipitation  
Precipitation 0.07 in - - ()
Sea Level Pressure  
Sea Level Pressure 29.86 in    
Wind  
Wind Speed 4 mph (North)    
Max Wind Speed 7 mph    
Max Gust Speed -    
Visibility 4 miles    
Events Rain    
Averages and records for this station are not official NWS values.
T = Trace of Precipitation, MM = Missing Value Source: NWS Daily Summary

Daily Weather History Graph

Daily Weather History Graph

Search for Another Location

Airport or City:

Trip Planner

Search our weather history database for the weather conditions in past years. The results will help you decide how hot, cold, wet, or windy it might be!

Date:

Astronomy

Dec. 07, 2012 Rise Set
Actual Time 7:07 AM CST 4:39 PM CST
Civil Twilight 6:37 AM CST 5:09 PM CST
Nautical Twilight 6:04 AM CST 5:42 PM CST
Astronomical Twilight 5:32 AM CST 6:14 PM CST
Moon 12:29 AM CST (12/7) 12:33 PM CST (12/7)
Length of Visible Light 10h 31m
Length of Day
9h 31m
Last Quarter, 38% of the Moon is Illuminated
Dec 7
Last Quarter
Dec 13
New
Dec 19
First Quarter
Dec 28
Full
Jan 4
Last Quarter

Hourly Weather History & Observations

Time (CST) Temp. Windchill Dew Point Humidity Pressure Visibility Wind Dir Wind Speed Gust Speed Precip Events Conditions
12:54 AM 45.0 °F 42.6 °F 42.1 °F 90% 29.93 in 10.0 mi ENE 4.6 mph - N/A   Clear
1:54 AM 44.1 °F 41.5 °F 41.0 °F 89% 29.92 in 9.0 mi ENE 4.6 mph - N/A   Clear
2:54 AM 46.0 °F 43.9 °F 42.1 °F 86% 29.91 in 9.0 mi ESE 4.6 mph - N/A   Clear
3:54 AM 45.0 °F 41.2 °F 43.0 °F 93% 29.88 in 7.0 mi ESE 6.9 mph - N/A   Overcast
4:54 AM 46.0 °F 43.1 °F 44.1 °F 93% 29.88 in 6.0 mi East 5.8 mph - N/A   Overcast
5:54 AM 46.9 °F - 45.0 °F 93% 29.88 in 5.0 mi East 6.9 mph - N/A   Overcast
6:29 AM 46.4 °F 45.2 °F 46.4 °F 100% 29.88 in 5.0 mi ENE 3.5 mph - N/A   Overcast
6:38 AM 48.2 °F - 46.4 °F 93% 29.88 in 5.0 mi ENE 3.5 mph - N/A   Overcast
6:54 AM 48.0 °F - 46.0 °F 93% 29.88 in 6.0 mi NE 3.5 mph - N/A   Overcast
7:54 AM 48.0 °F - 45.0 °F 89% 29.88 in 5.0 mi ENE 5.8 mph - N/A   Overcast
8:54 AM 48.0 °F - 46.0 °F 93% 29.88 in 4.0 mi NE 5.8 mph - N/A   Overcast
9:07 AM 48.2 °F - 46.4 °F 93% 29.88 in 3.0 mi NE 5.8 mph - N/A   Overcast
9:33 AM 48.2 °F - 46.4 °F 93% 29.88 in 2.5 mi NE 4.6 mph - N/A   Overcast
9:50 AM 48.2 °F - 46.4 °F 93% 29.88 in 3.0 mi NNE 3.5 mph - N/A   Overcast
9:54 AM 48.0 °F - 46.0 °F 93% 29.88 in 3.0 mi North 3.5 mph - N/A   Overcast
10:05 AM 48.2 °F - 46.4 °F 93% 29.88 in 2.5 mi NNE 4.6 mph - N/A   Overcast
10:33 AM 48.2 °F - 46.4 °F 93% 29.87 in 1.5 mi ENE 4.6 mph - N/A   Overcast
10:54 AM 48.9 °F - 46.9 °F 93% 29.87 in 1.2 mi NE 4.6 mph - N/A   Overcast
11:54 AM 50.0 °F - 48.0 °F 93% 29.85 in 1.0 mi North 3.5 mph - N/A   Overcast
12:54 PM 50.0 °F - 48.0 °F 93% 29.83 in 1.5 mi NW 3.5 mph - N/A   Overcast
1:54 PM 50.0 °F - 48.0 °F 93% 29.82 in 1.8 mi Calm Calm - N/A   Overcast
2:02 PM 50.0 °F - 48.2 °F 94% 29.82 in 1.8 mi Calm Calm - N/A   Overcast
2:13 PM 50.0 °F - 48.2 °F 94% 29.82 in 2.0 mi Calm Calm - N/A   Overcast
2:40 PM 51.8 °F - 48.2 °F 88% 29.83 in 3.0 mi West 5.8 mph - N/A   Overcast
2:42 PM 51.8 °F - 48.2 °F 88% 29.83 in 3.0 mi West 4.6 mph - N/A   Overcast
2:54 PM 50.0 °F - 48.0 °F 93% 29.83 in 2.5 mi WNW 4.6 mph - N/A   Overcast
3:27 PM 50.0 °F - 46.4 °F 87% 29.83 in 3.0 mi West 5.8 mph - N/A   Overcast
3:34 PM 50.0 °F - 46.4 °F 87% 29.83 in 3.0 mi WNW 4.6 mph - N/A   Overcast
3:54 PM 48.9 °F - 46.9 °F 93% 29.83 in 2.5 mi NW 6.9 mph - N/A   Overcast
4:07 PM 48.2 °F - 48.2 °F 100% 29.83 in 2.0 mi NW 3.5 mph - N/A   Overcast
4:16 PM 48.2 °F - 48.2 °F 100% 29.83 in 1.8 mi WNW 3.5 mph - N/A   Overcast
4:26 PM 48.2 °F - 48.2 °F 100% 29.83 in 2.0 mi WNW 3.5 mph - N/A   Overcast
4:50 PM 48.2 °F - 48.2 °F 100% 29.83 in 3.0 mi Calm Calm - N/A   Overcast
4:54 PM 48.9 °F - 48.0 °F 97% 29.84 in 3.0 mi West 3.5 mph - N/A   Overcast
5:04 PM 48.2 °F - 46.4 °F 93% 29.84 in 3.0 mi WNW 4.6 mph - N/A   Overcast
5:54 PM 48.9 °F - 46.9 °F 93% 29.86 in 4.0 mi Calm Calm - N/A   Overcast
6:22 PM 48.2 °F - 46.4 °F 93% 29.86 in 4.0 mi Calm Calm - N/A   Overcast
7:29 PM 48.2 °F - 46.4 °F 93% 29.87 in 5.0 mi Calm Calm - N/A   Overcast
7:54 PM 48.0 °F - 46.9 °F 96% 29.87 in 3.0 mi Calm Calm - N/A   Overcast
8:17 PM 48.2 °F - 46.4 °F 93% 29.86 in 3.0 mi Calm Calm - N/A   Overcast
8:54 PM 48.0 °F - 46.9 °F 96% 29.86 in 3.0 mi Calm Calm - N/A   Overcast
9:19 PM 46.4 °F - 46.4 °F 100% 29.86 in 2.5 mi Calm Calm - N/A   Mostly Cloudy
9:49 PM 46.4 °F 44.3 °F 46.4 °F 100% 29.86 in 3.0 mi West 4.6 mph - N/A   Overcast
9:54 PM 46.9 °F - 46.0 °F 97% 29.87 in 3.0 mi West 5.8 mph - N/A   Overcast
10:54 PM 48.0 °F - 46.0 °F 93% 29.87 in 4.0 mi NW 5.8 mph - N/A   Overcast
11:34 PM 48.2 °F - 46.4 °F 93% 29.88 in 2.5 mi Calm Calm - 0.04 in Rain Rain
11:44 PM 48.2 °F - 46.4 °F 93% 29.88 in 4.0 mi NW 4.6 mph - 0.05 in Rain Light Rain
11:54 PM 48.0 °F - 46.0 °F 93% 29.88 in 3.0 mi WNW 4.6 mph - 0.07 in Rain Light Rain